Location: Bílinka
(49.3579°N, 14.3767°E)
Time: 00:58:57
(UTC+00:00)

NOSS 2-1 (D) - Pass Details

Date: 28 January 2023
Orbit: 416 x 1760 km, 63.3° (Epoch: 27 March)

Event Time Altitude Azimuth Distance (km) Brightness Sun altitude
Rises 17:06:59 0° 318° (NW) 2,649 7.2 -12.3°
Reaches altitude 10° 17:08:53 10° 320° (NW) 1,870 6.4 -12.6°
Maximum altitude 17:13:03 80° 48° (NE) 709 3.7 -13.3°
Drops below altitude 10° 17:18:50 10° 135° (SE) 2,582 6.4 -14.2°
Sets 17:21:51 0° 137° (SE) 3,759 7.3 -14.7°
